User: anonymous   Login
Location: Lake Arresoe
(56.0000°N, 12.5000°E)
Time: 18:23:06
(UTC+01:00)
Language:

Cosmos 2058 - Orbit

View from above orbital plane
View from above orbital plane
View from above satellite
View from above satellite

Ground track
Ground track

The orbit data is extracted from the following two-line orbital elements,

1 20465U 90010A   19321.02736611  .00000212  00000-0  15646-4 0  9990
2 20465  82.4870 118.7136 0015054 195.1142 164.9633 14.97930976617486
Epoch (UTC): 17 November 2019 00:39:24
Eccentricity: 0.0015054
inclination: 82.4870°
perigee height: 563 km
apogee height: 584 km
right ascension of ascending node: 118.7136°
argument of perigee: 195.1142°
revolutions per day: 14.97930976
mean anomaly at epoch: 164.9633°
orbit number at epoch: 61748

The dashed part of the orbit path shows where the satellite is in the earth's shadow,  

DLR